Regional Weather Roundup
Issued by NWS Huntsville, AL

Home | Current Version | Previous Version | Text Only | Print | Product List | Glossary On
Versions: 1 2 3 4 5 6 7 8 9 10 11 12 13 14 15 16 17 18 19 20 21 22 23 24 25 26 27 28
000
ASUS44 KHUN 241710
RWRHUN

WEATHER ROUNDUP FOR THE TENNESSEE VALLEY
NATIONAL WEATHER SERVICE HUNTSVILLE AL
1200 PM CDT SUN JUL 24 2016

ALZ001>004-241800-
NORTHWEST ALABAMA

CITY           SKY/WX    TMP DP  RH WIND       PRES   REMARKS
SHOALS AIRPORT SUNNY     91  73  55 CALM      30.04S HX  99
SHOALS TVA RES   N/A     91 N/A N/A MISG        N/A
$$

ALZ005>007-016-241800-
NORTH CENTRAL ALABAMA

CITY           SKY/WX    TMP DP  RH WIND       PRES   REMARKS
DECATUR AP     CLOUDY    89  75  63 S8        30.04F HX  99
HUNTSVILLE AP  PTSUNNY   91  70  49 S6        30.04F HX  96
MERIDIANVILLE  CLOUDY    90  64  43 S8        30.05F HX  91
REDSTONE ARSN  MOSUNNY   91  75  61 W3        30.03F HX 101
VINEMONT AP    FAIR      88  72  60 S7        30.08F HX  94
$$

ALZ008>010-241800-
NORTHEAST ALABAMA

CITY           SKY/WX    TMP DP  RH WIND       PRES   REMARKS
ALBERTVILLE    CLOUDY    86  81  84 CALM      30.07S HX 102
FORT PAYNE     SUNNY     86  70  58 S6        30.06F HX  90
SCOTTSBORO AP  MOSUNNY   90  73  58 SW7       30.06S HX  98
SCOTTSBORO HCN   N/A     90 N/A N/A MISG        N/A
VALLEY HEAD      N/A     86 N/A N/A MISG        N/A
$$

TNZ076-096-097-241800-
SOUTHEASTERN MIDDLE TENNESSEE

CITY           SKY/WX    TMP DP  RH WIND       PRES   REMARKS
TULLAHOMA      SUNNY     88  73  62 SW7       30.09F HX  96
WINCHESTER     CLOUDY    86  75  70 NW7       30.07S HX  95
$$

...SURROUNDING SITES...

CITY           SKY/WX    TMP DP  RH WIND       PRES   REMARKS
ATLANTA        PTSUNNY   92  69  47 W9        30.07F HX  97
ANNISTON       PTSUNNY   89  73  59 CALM      30.05F HX  97
BIRMINGHAM     MOSUNNY   90  73  57 S3        30.06F HX  98
CHATTANOOGA    PTSUNNY   92  70  48 VRB6      30.06F HX  97
DALTON         MOSUNNY   88  72  58 CALM      30.07S HX  94
GADSDEN        SUNNY     88  76  67 CALM      30.06F HAZE    HX  99
GOLDEN TRNGL   PTSUNNY   91  73  55 S7        30.01S HX 100
HALEYVILLE     FAIR      88  74  63 S6        30.07F HX  96
JACKSON TN     PTSUNNY   87  76  69 W6        30.02S HX  97
MEMPHIS        CLOUDY    86  75  69 SW7       30.00F HX  95
NASHVILLE      PTSUNNY   92  71  50 VRB5      30.04F HX  98
OXFORD MS      FAIR      86  73  66 SW5       30.03S HX  93
ROME           MOSUNNY   91  73  55 VRB5      30.05F HX  99
SAVANNAH       MOSUNNY   91  75  59 S7        30.01S HX 102
TUPELO         MOSUNNY   90  76  63 S8        30.01F HX 101
TUSCALOOSA     MOSUNNY   90  75  61 SW8       30.02F HX 100
$$

...GULF COAST WEATHER...

CITY           SKY/WX    TMP DP  RH WIND       PRES   REMARKS
GULFPORT       PTSUNNY   88  76  67 CALM      30.00F HX  99
PASCAGOULA     LGT RAIN  85  77  77 S5        30.01S HX  95
MOBILE         PTSUNNY   90  74  59 E7        30.02F HX  99
GULF SHORES    PTSUNNY   89  77  67 SE8       30.00F HX 100
PENSACOLA      PTSUNNY   93  71  48 SE8G16    30.00F HX 100
DESTIN         MOSUNNY   90  79  70 SE9       30.01F HX 106
PANAMA CITY    CLOUDY    88  75  66 E10       30.01F HX  97
APPALACHICOLA  CLOUDY    88  77  69 SE9       30.02S HX 100
$$





USA.gov is the U.S. government's official web portal to all federal, state and local government web resources and services.